This demonstration page uses our WeatherBlox Daily Observations layout. Learn more.

Left ArrowRight Arrow

44.31136, -96.79839

Hourly Observations for May 29, 2022

Temp ( °F °C ) Dew Point ( °F °C ) Humidity (%) Winds ( mph kmh ) Pressure ( in mb ) Visibility ( mi km ) Precip ( " mm )
12:56 am 00:56 Clear 73 22.8 61 16.1 66 66 S 8 13 29.48 998 10 16 0.00 0.00
1:56 am 01:56 Mostly Clear 74 23.3 62 16.7 67 67 S 10 17 29.47 998 10 16 0.00 0.00
2:42 am 02:42 Cloudy with Haze 70 21 55 13 60 60 NW 12 19 29.42 996 3 4 0.00 0.00
2:56 am 02:56 Cloudy with Haze 68 20 56 13.3 65 65 NW 7 11 29.47 998 3 4 0.00 0.00
3:46 am 03:46 Mostly Cloudy with Haze 66 19 55 13 68 68 N 3 6 29.42 996 3 4 0.00 0.00
3:56 am 03:56 Hazy 65 18.3 56 13.3 73 73 Calm 29.47 998 3 4 0.00 0.00
4:08 am 04:08 Mostly Cloudy with Nearby Thunderstorms 64 18 57 14 78 78 SSW 7 11 29.47 998 3 5 0.00 0.00
4:56 am 04:56 Mostly Cloudy with Light Rain 64 17.8 59 15 84 84 E 20 31 29.40 996 5 8 0.01 0.25
5:14 am 05:14 Partly Cloudy 68 20 61 16 78 78 E 21 33 29.26 991 10 16 0.00 0.00
5:56 am 05:56 Mostly Sunny 68 20 62 16.7 81 81 SSE 23 37 29.37 995 10 16 0.00 0.00
6:08 am 06:08 Sunny 66 19 63 17 88 88 SSE 24 39 29.35 994 10 16 0.00 0.00
6:56 am 06:56 Sunny 64 17.8 59 15 84 84 S 8 13 29.42 996 10 16 0.00 0.00
7:56 am 07:56 Partly Cloudy 65 18.3 60 15.6 84 84 S 9 15 29.43 997 10 16 0.00 0.00
8:27 am 08:27 Mostly Cloudy 68 20 61 16 78 78 SSE 10 17 29.37 995 10 16 0.00 0.00
8:56 am 08:56 Mostly Cloudy 68 20 61 16.1 78 78 SSE 13 20 29.41 996 10 16 0.00 0.00
9:24 am 09:24 Partly Cloudy 70 21 61 16 73 73 SSE 14 22 29.34 994 10 16 0.00 0.00
9:56 am 09:56 Sunny 75 23.9 61 16.1 62 62 S 20 31 29.39 995 10 16 0.00 0.00
10:35 am 10:35 Mostly Cloudy 77 25 63 17 61 61 S 17 28 29.31 993 10 16 0.00 0.00
10:56 am 10:56 Cloudy 75 23.9 64 17.8 69 69 S 13 20 29.40 996 10 16 0.00 0.00
11:56 am 11:56 Partly Cloudy 77 25 64 17.8 64 64 S 8 13 29.39 995 10 16 0.00 0.00
12:08 pm 12:08 Mostly Cloudy 75 24 64 18 69 69 S 13 20 29.33 993 10 16 0.00 0.00
12:56 pm 12:56 Cloudy 77 25 64 17.8 64 64 S 13 20 29.40 996 10 16 0.00 0.00
1:56 pm 13:56 Cloudy 74 23.3 64 17.8 71 71 SSE 8 13 29.40 996 10 16 0.00 0.00
2:56 pm 14:56 Mostly Cloudy 80 26.7 65 18.3 60 60 ESE 9 15 29.38 995 10 16 0.00 0.00
3:08 pm 15:08 Partly Cloudy 79 26 64 18 61 61 SSE 10 17 29.31 992 10 16 0.00 0.00
3:19 pm 15:19 Mostly Cloudy 75 24 64 18 69 69 SE 8 13 29.33 993 10 16 0.00 0.00
3:56 pm 15:56 Cloudy 75 23.9 65 18.3 71 71 SE 7 11 29.39 995 10 16 0.00 0.00
4:46 pm 16:46 Mostly Cloudy 77 25 64 18 65 65 SSE 3 6 29.31 993 10 16 0.00 0.00
4:56 pm 16:56 Mostly Cloudy 78 25.6 65 18.3 64 64 VRB 3 6 29.40 996 10 16 0.00 0.00
5:56 pm 17:56 Mostly Cloudy 78 25.6 65 18.3 64 64 Calm 29.40 996 10 16 0.00 0.00
6:56 pm 18:56 Partly Cloudy 77 25 66 18.9 69 69 NNW 3 6 29.40 996 10 16 0.00 0.00
7:56 pm 19:56 Sunny 76 24.4 66 18.9 72 72 NE 3 6 29.41 996 10 16 0.00 0.00
8:56 pm 20:56 Mostly Cloudy 74 23.3 65 18.3 74 74 E 6 9 29.41 996 10 16 0.00 0.00
9:56 pm 21:56 Clear 73 22.8 64 17.8 74 74 E 8 13 29.42 996 10 16 0.00 0.00
10:56 pm 22:56 Partly Cloudy 73 22.8 64 17.8 74 74 E 10 17 29.41 996 10 16 0.00 0.00
11:44 pm 23:44 Cloudy with Thunderstorms 73 23 64 18 74 74 E 10 17 29.32 993 10 16 0.00 0.00
11:56 pm 23:56 Cloudy with Thunderstorms 73 22.8 64 17.8 74 74 E 12 19 29.36 994 10 16 0.00 0.00

Powered by AerisWeather